This is the latest recevied weather packets stored in our database for station/object PA1CD-13. If no packets are shown the sender has not sent any weather packets the latest 10 day(s).
| Time | Temp. | Humidity | Pressure | Rain* | Wind** | Luminosity | Snow |
|---|---|---|---|---|---|---|---|
| 1778315191 | 16.11° C | 61% | 1018.8 hPa | 0 mm | - | 600 W/m² | - |
| 1778315069 | 16.11° C | 61% | 1019 hPa | 0 mm | - | 591 W/m² | - |
| 1778314926 | 16.11° C | 61% | 1018.8 hPa | 0 mm | - | 584 W/m² | - |
| 1778314805 | 16.11° C | 61% | 1018.9 hPa | 0 mm | - | 580 W/m² | - |
| 1778314686 | 16.11° C | 61% | 1018.8 hPa | 0 mm | - | 577 W/m² | - |
| 1778314566 | 16.11° C | 60% | 1018.8 hPa | 0 mm | - | 572 W/m² | - |
| 1778314445 | 16.11° C | 61% | 1018.8 hPa | 0 mm | - | 563 W/m² | - |
| 1778314325 | 16.11° C | 61% | 1018.7 hPa | 0 mm | - | 561 W/m² | - |
| 1778314205 | 16.11° C | 60% | 1018.8 hPa | 0 mm | - | 554 W/m² | - |
| 1778314085 | 16.11° C | 61% | 1018.8 hPa | 0 mm | - | 547 W/m² | - |
| 1778313933 | 16.11° C | 61% | 1018.8 hPa | 0 mm | - | 547 W/m² | - |
| 1778313812 | 16.11° C | 60% | 1018.7 hPa | 0 mm | - | 543 W/m² | - |
| 1778313691 | 16.11° C | 61% | 1018.8 hPa | 0 mm | - | 540 W/m² | - |
| 1778313571 | 16.11° C | 61% | 1018.9 hPa | 0 mm | - | 535 W/m² | - |
| 1778313451 | 16.11° C | 60% | 1018.9 hPa | 0 mm | - | 528 W/m² | - |
| 1778313334 | 16.11° C | 60% | 1018.9 hPa | 0 mm | - | 526 W/m² | - |
| 1778313215 | 16.11° C | 60% | 1018.9 hPa | 0 mm | - | 522 W/m² | - |
| 1778313095 | 15.56° C | 61% | 1018.9 hPa | 0 mm | - | 510 W/m² | - |
| 1778312975 | 15.56° C | 61% | 1018.9 hPa | 0 mm | - | 510 W/m² | - |
| 1778312850 | 15.56° C | 61% | 1018.9 hPa | 0 mm | - | 499 W/m² | - |
| 1778312733 | 15.56° C | 61% | 1018.9 hPa | 0 mm | - | 499 W/m² | - |
| 1778312585 | 15.56° C | 60% | 1018.9 hPa | 0 mm | - | 499 W/m² | - |
| 1778312465 | 15.56° C | 59% | 1018.9 hPa | 0 mm | - | 478 W/m² | - |
| 1778312346 | 15.56° C | 59% | 1018.8 hPa | 0 mm | - | 478 W/m² | - |
| 1778312225 | 15.56° C | 59% | 1018.8 hPa | 0 mm | - | 478 W/m² | - |
* Rain latest hour (hover to see other rain measurements)
** Current wind speed in m/s (hover to see current wind gust speed)